TimeEST,TemperatureF,Dew PointF,Humidity,Sea Level PressureIn,VisibilityMPH,Wind Direction,Wind SpeedMPH,Gust SpeedMPH,PrecipitationIn,Events,Conditions,WindDirDegrees,DateUTC
12:53 AM,35.1,26.1,70,30.27,10.0,SW,3.5,-,N/A,,Scattered Clouds,230,2013-11-08 05:53:00
1:53 AM,34.0,26.1,73,30.27,10.0,WSW,4.6,-,N/A,,Partly Cloudy,240,2013-11-08 06:53:00
2:53 AM,34.0,26.1,73,30.27,10.0,WSW,5.8,-,N/A,,Partly Cloudy,240,2013-11-08 07:53:00
3:53 AM,33.1,25.0,72,30.27,10.0,WSW,4.6,-,N/A,,Clear,240,2013-11-08 08:53:00
4:53 AM,34.0,25.0,70,30.29,10.0,West,6.9,-,N/A,,Clear,260,2013-11-08 09:53:00
5:53 AM,33.1,26.1,75,30.32,10.0,Variable,6.9,-,N/A,,Clear,0,2013-11-08 10:53:00
6:53 AM,30.9,26.1,82,30.35,10.0,West,3.5,-,N/A,,Clear,270,2013-11-08 11:53:00
7:53 AM,33.1,27.0,78,30.37,10.0,West,3.5,-,N/A,,Clear,280,2013-11-08 12:53:00
8:53 AM,36.0,28.9,76,30.40,10.0,Calm,Calm,-,N/A,,Clear,0,2013-11-08 13:53:00
9:53 AM,39.0,28.9,67,30.40,10.0,Variable,3.5,-,N/A,,Clear,0,2013-11-08 14:53:00
10:53 AM,45.0,26.1,48,30.40,10.0,Calm,Calm,-,N/A,,Clear,0,2013-11-08 15:53:00
11:53 AM,46.0,26.1,46,30.39,10.0,Calm,Calm,-,N/A,,Clear,0,2013-11-08 16:53:00
12:53 PM,48.9,24.1,38,30.35,10.0,Variable,6.9,-,N/A,,Clear,0,2013-11-08 17:53:00
1:53 PM,50.0,24.1,36,30.33,10.0,Variable,3.5,-,N/A,,Clear,0,2013-11-08 18:53:00
2:53 PM,51.1,21.9,32,30.32,10.0,Variable,3.5,-,N/A,,Clear,0,2013-11-08 19:53:00
3:53 PM,50.0,21.0,32,30.31,10.0,Calm,Calm,-,N/A,,Clear,0,2013-11-08 20:53:00
4:53 PM,48.9,21.0,33,30.30,10.0,West,3.5,-,N/A,,Clear,280,2013-11-08 21:53:00
5:53 PM,45.0,21.0,39,30.30,10.0,WSW,4.6,-,N/A,,Clear,250,2013-11-08 22:53:00
6:53 PM,45.0,19.9,37,30.31,10.0,NW,3.5,-,N/A,,Clear,310,2013-11-08 23:53:00
7:53 PM,46.0,19.9,35,30.30,10.0,Calm,Calm,-,N/A,,Clear,0,2013-11-09 00:53:00
8:53 PM,42.1,21.0,43,30.31,10.0,Calm,Calm,-,N/A,,Clear,0,2013-11-09 01:53:00
9:53 PM,39.9,21.0,47,30.30,10.0,ESE,3.5,-,N/A,,Clear,120,2013-11-09 02:53:00
10:53 PM,39.9,21.0,47,30.29,10.0,Calm,Calm,-,N/A,,Clear,0,2013-11-09 03:53:00
11:53 PM,39.9,21.0,47,30.28,10.0,South,3.5,-,N/A,,Clear,170,2013-11-09 04:53:00